Date String (YYYY-MM-DD hh:mm:ss) UTC,Instrument flags,absolute air pressure of the measurement (hPa),sample flow rate (lpm),inlet stack bypass flow (lpm),air temperature of the measurement (°C),ambient temperature measured by the external sensor (°C),aerosol sample conditioner tube jacket temperature (°C),OPC LED temperature (°C),internal box temperature (°C),relative humidity of the measurement (%),span deviation,mass concentration of particles derived from Lorenz-Mie calculation of OPC scattering (μg/m³),mass concentration of particles derived from Lorenz-Mie calculation of OPC scattering (μg/m³),mass concentration of particles derived from Lorenz-Mie calculation of OPC scattering (μg/m³)
DateTimeUTC,F1_M11,P_M11,Q1_M11,Q2_M11,T1_M11,T2_M11,T3_M11,T4_M11,T5_M11,U1_M11,ZSPAN_M11,X0_M11,X2_M11,X1_M11
2023-09-28 12:00:00,SystemResetWarning,0828.6,5.01,000.00,029.0,027.7,000.0,037.4,030.7,15.2,0000.0,0008.90,0005.02,0004.47
2023-09-28 12:01:00,SystemResetWarning,0828.6,5.01,000.00,029.0,027.7,000.0,037.4,030.7,15.2,0000.0,0008.88,0005.05,0004.48
2023-09-28 12:02:00,SystemResetWarning,0828.6,5.01,000.00,029.0,027.8,000.0,037.4,030.7,15.0,0000.0,0009.38,0005.10,0004.53
2023-09-28 12:03:00,SystemResetWarning,0828.5,4.99,000.00,029.1,027.1,000.0,037.4,030.7,15.0,0000.0,0009.72,0005.17,0004.56
2023-09-28 12:04:00,SystemResetWarning,0828.5,4.99,000.00,029.0,025.0,000.0,037.4,030.5,15.3,0000.0,0009.93,0005.26,0004.60
2023-09-28 12:05:00,SystemResetWarning,0828.5,5.02,000.00,028.9,024.4,000.0,037.3,030.3,15.1,0000.0,0010.13,0005.36,0004.67
2023-09-28 12:06:00,SystemResetWarning,0828.4,5.00,000.00,028.7,024.5,000.0,037.3,030.1,15.3,0000.0,0011.17,0005.44,0004.71
2023-09-28 12:07:00,SystemResetWarning,0828.4,5.00,000.00,028.6,024.9,000.0,037.2,030.0,15.1,0000.0,0011.39,0005.52,0004.77
2023-09-28 12:08:00,SystemResetWarning,0828.4,5.01,000.00,028.6,025.2,000.0,037.2,030.0,14.7,0000.0,0011.59,0005.62,0004.84
2023-09-28 12:09:00,SystemResetWarning,0828.4,5.00,000.00,028.5,025.6,000.0,037.2,030.0,14.1,0000.0,0012.58,0005.70,0004.90
2023-09-28 12:10:00,SystemResetWarning,0828.4,5.00,000.00,028.5,025.9,000.0,037.2,030.0,14.3,0000.0,0013.02,0005.77,0004.94
2023-09-28 12:11:00,SystemResetWarning,0828.4,4.99,000.00,028.5,026.1,000.0,037.2,030.1,14.0,0000.0,0012.74,0005.83,0004.97
2023-09-28 12:12:00,SystemResetWarning,0828.4,5.00,000.00,028.5,026.3,000.0,037.1,030.1,14.5,0000.0,0012.86,0005.86,0005.00
2023-09-28 12:13:00,SystemResetWarning,0828.4,5.00,000.00,028.5,026.5,000.0,037.1,030.1,14.1,0000.0,0013.03,0005.88,0005.00
2023-09-28 12:14:00,SystemResetWarning,0828.4,5.01,000.00,028.5,026.6,000.0,037.1,030.1,13.2,0000.0,0012.76,0005.92,0005.03
2023-09-28 12:15:00,SystemResetWarning,0828.4,5.00,000.00,028.5,026.7,000.0,037.1,030.2,12.8,0000.0,0012.72,0005.96,0005.06
2023-09-28 12:16:00,SystemResetWarning,0828.5,4.99,000.00,028.5,026.9,000.0,037.1,030.2,12.8,0000.0,0013.06,0005.97,0005.08
2023-09-28 12:17:00,SystemResetWarning,0828.6,5.00,000.00,028.5,026.9,000.0,037.1,030.2,13.2,0000.0,0013.52,0006.00,0005.09
2023-09-28 12:18:00,SystemResetWarning,0828.6,5.00,000.00,028.5,027.0,000.0,037.1,030.2,13.2,0000.0,0014.01,0006.05,0005.11
2023-09-28 12:19:00,SystemResetWarning,0828.5,4.99,000.00,028.6,027.1,000.0,037.1,030.2,13.4,0000.0,0015.29,0006.12,0005.13
2023-09-28 12:20:00,SystemResetWarning,0828.5,4.99,000.00,028.6,027.1,000.0,037.1,030.3,13.6,0000.0,0015.87,0006.20,0005.16
2023-09-28 12:21:00,SystemResetWarning,0828.6,5.00,000.00,028.6,027.2,000.0,037.1,030.3,13.2,0000.0,0016.24,0006.27,0005.21
2023-09-28 12:22:00,SystemResetWarning,0828.6,5.00,000.00,028.6,027.2,000.0,037.1,030.3,13.8,0000.0,0017.48,0006.37,0005.26
2023-09-28 12:23:00,SystemResetWarning,0828.6,5.01,000.00,028.6,027.3,000.0,037.1,030.3,14.0,0000.0,0018.25,0006.45,0005.31
2023-09-28 12:24:00,SystemResetWarning,0828.6,5.00,000.00,028.6,027.3,000.0,037.1,030.3,14.0,0000.0,0019.76,0006.54,0005.33
2023-09-28 12:25:00,SystemResetWarning,0828.6,5.01,000.00,028.7,027.3,000.0,037.1,030.3,13.9,0000.0,0021.23,0006.61,0005.35
2023-09-28 12:26:00,SystemResetWarning,0828.6,5.00,000.00,028.7,027.4,000.0,037.1,030.4,13.9,0000.0,0022.43,0006.62,0005.37
2023-09-28 12:27:00,SystemResetWarning,0828.6,5.00,000.00,028.7,027.4,000.0,037.1,030.4,14.0,0000.0,0023.05,0006.67,0005.38
2023-09-28 12:28:00,SystemResetWarning,0828.6,5.00,000.00,028.7,027.4,000.0,037.1,030.4,14.1,0000.0,0022.94,0006.78,0005.40
2023-09-28 12:29:00,SystemResetWarning,0828.6,5.00,000.00,028.7,027.4,000.0,037.1,030.4,14.0,0000.0,0022.94,0006.78,0005.41
2023-09-28 12:30:00,SystemResetWarning,0828.6,5.00,000.00,028.7,027.4,000.0,037.1,030.4,14.5,0000.0,0021.75,0006.74,0005.43
2023-09-28 12:31:00,SystemResetWarning,0828.6,5.00,000.00,028.7,027.4,000.0,037.1,030.5,14.0,0000.0,0021.71,0006.83,0005.44
2023-09-28 12:32:00,SystemResetWarning,0828.5,4.99,000.00,028.7,027.5,000.0,037.1,030.5,13.6,0000.0,0020.73,0006.81,0005.43
2023-09-28 12:33:00,SystemResetWarning,0828.6,5.01,000.00,028.8,027.5,000.0,037.1,030.5,13.5,0000.0,0020.92,0006.79,0005.42
2023-09-28 12:34:00,SystemResetWarning,0828.6,5.01,000.00,028.8,027.5,000.0,037.2,030.5,13.4,0000.0,0020.86,0006.79,0005.42
2023-09-28 12:35:00,SystemResetWarning,0828.6,5.00,000.00,028.8,027.5,000.0,037.2,030.5,13.5,0000.0,0021.30,0006.82,0005.44
2023-09-28 12:36:00,SystemResetWarning,0828.6,4.98,000.00,028.8,027.5,000.0,037.2,030.5,13.4,0000.0,0020.19,0006.81,0005.45
2023-09-28 12:37:00,SystemResetWarning,0828.6,5.01,000.00,028.8,027.5,000.0,037.2,030.5,13.3,0000.0,0019.61,0006.82,0005.45
2023-09-28 12:38:00,SystemResetWarning,0828.6,5.01,000.00,028.8,027.5,000.0,037.2,030.5,13.4,0000.0,0018.87,0006.82,0005.46
2023-09-28 12:39:00,SystemResetWarning,0828.6,5.01,000.00,028.8,027.5,000.0,037.2,030.5,13.3,0000.0,0018.67,0006.80,0005.46
2023-09-28 12:40:00,SystemResetWarning,0828.6,5.00,000.00,028.8,027.5,000.0,037.2,030.5,13.4,0001.9,0017.79,0006.79,0005.45
2023-09-28 12:41:00,SystemResetWarning,0828.5,5.00,000.00,028.9,027.5,000.0,037.2,030.5,13.0,0003.4,0018.07,0006.88,0005.44
2023-09-28 12:42:00,SystemResetWarning,0828.5,5.00,000.00,028.9,027.6,000.0,037.2,030.6,12.5,0000.4,0017.96,0006.86,0005.44
2023-09-28 12:43:00,SystemResetWarning,0828.6,4.99,000.00,028.9,027.6,000.0,037.3,030.6,12.3,0000.0,0017.72,0006.79,0005.44
2023-09-28 12:44:00,SystemResetWarning,0828.6,5.00,000.00,028.9,027.6,000.0,037.3,030.6,12.3,0000.0,0017.22,0006.80,0005.44
2023-09-28 12:45:00,SystemResetWarning,0828.5,5.00,000.00,028.9,027.6,000.0,037.3,030.6,12.2,0000.0,0016.76,0006.75,0005.41
2023-09-28 12:46:00,SystemResetWarning,0828.6,5.00,000.00,028.9,027.6,000.0,037.3,030.6,12.4,0000.0,0016.15,0006.69,0005.37
2023-09-28 12:47:00,SystemResetWarning,0828.6,5.00,000.00,028.9,027.6,000.0,037.3,030.6,12.4,0000.0,0015.69,0006.60,0005.34
2023-09-28 12:48:00,SystemResetWarning,0828.5,5.00,000.00,028.9,027.7,000.0,037.3,030.6,12.5,0000.0,0015.10,0006.57,0005.30
2023-09-28 12:49:00,SystemResetWarning,0828.5,5.01,000.00,029.0,027.7,000.0,037.3,030.7,12.5,0000.0,0015.22,0006.55,0005.27
2023-09-28 12:50:00,SystemResetWarning,0828.5,5.01,000.00,029.0,027.7,000.0,037.3,030.7,12.3,0000.0,0015.57,0006.44,0005.22
2023-09-28 12:51:00,SystemResetWarning,0828.5,5.00,000.00,029.0,027.7,000.0,037.3,030.6,12.2,0000.0,0015.47,0006.31,0005.15
2023-09-28 12:52:00,SystemResetWarning,0828.5,4.99,000.00,029.0,027.7,000.0,037.3,030.7,12.1,0000.0,0015.27,0006.17,0005.09
2023-09-28 12:53:00,SystemResetWarning,0828.5,5.00,000.00,029.0,027.7,000.0,037.3,030.7,12.6,0000.0,0014.95,0006.09,0005.04
2023-09-28 12:54:00,SystemResetWarning,0828.5,5.01,000.00,029.0,027.7,000.0,037.3,030.7,12.7,0000.0,0014.46,0005.99,0004.98
2023-09-28 12:55:00,SystemResetWarning,0828.4,5.00,000.00,029.0,027.7,000.0,037.4,030.7,12.2,0000.0,0013.97,0005.91,0004.93
2023-09-28 12:56:00,SystemResetWarning,0828.5,4.98,000.00,029.0,027.7,000.0,037.4,030.7,12.6,0000.0,0014.26,0005.86,0004.93
2023-09-28 12:57:00,SystemResetWarning,0828.6,5.00,000.00,029.0,027.7,000.0,037.4,030.7,12.8,0000.0,0013.56,0005.84,0004.91
2023-09-28 12:58:00,SystemResetWarning,0828.6,5.01,000.00,029.0,027.7,000.0,037.4,030.7,12.7,0000.4,0012.43,0005.82,0004.90
2023-09-28 12:59:00,SystemResetWarning,0828.6,5.01,000.00,029.0,027.7,000.0,037.4,030.7,12.6,0002.8,0012.53,0005.82,0004.91
